YAMAL 300K

Last updated on Jan. 18, 2020, 4:38 a.m. UTC

1 38978U 12061B   20017.55273118  .00000067  00000-0  00000-0 0  9990
2 38978   0.0162  76.7243 0001043 143.8015 277.8559  1.00272721 26154
UTC
Height (km)
Latitude
Longitude
Inclination
Orbital Period
UTC large
Height (km)
Speed (km/s)
/
Latitude / Longitude
Inclination (degrees)
Orbital Period (minutes)
Azimuth
Elevation
Range (km)
Doppler Factor
iOS Compass Heading
iOS Angle

Next 30 passes for location: Hong Kong

Rise time Rise Azimuth (degrees) Set time Set Azimuth (degrees) Duration Max altitude (degrees)

No matching passes for this satellites